GFSFLT2_prec_cthk_339.txt.gz
RH
25 21 20 20 21 20 19 19 18 18 19 19 18 18 17 17 17 17 17 19 21 25 33 41 42 44 43 36 34 33 35 27
27 22 21 20 22 22 20 19 19 22 22 21 20 19 19 19 20 22 23 25 30 38 41 43 43 44 40 34 36 35 32 26
31 24 23 23 23 24 22 21 22 23 24 23 22 21 21 21 22 25 32 38 41 40 38 38 36 35 33 31 30 32 28 32
29 29 26 26 25 25 22 21 22 24 24 26 26 27 31 30 28 34 40 47 48 47 45 43 42 39 36 32 29 26 31 35
31 27 29 29 29 28 24 23 23 26 33 41 39 54 36 31 42 53 56 54 59 61 60 51 48 45 38 37 34 29 28 30
34 30 28 29 30 29 27 26 25 36 43 54 62 45 53 54 66 74 74 75 80 80 71 61 56 51 42 37 37 33 34 34
41 39 35 35 32 31 31 33 33 36 49 64 61 49 58 72 75 80 85 85 82 74 64 57 49 44 37 37 38 35 36 34
49 46 42 42 38 40 41 38 42 41 44 59 62 63 67 68 81 83 85 81 68 62 53 50 44 38 36 39 39 36 39 37
54 51 54 47 46 45 46 47 49 51 51 51 55 61 71 68 75 78 75 67 61 59 48 42 40 34 35 39 41 43 41 41
57 57 56 55 57 56 55 57 57 61 65 48 48 60 63 56 60 64 67 66 61 58 44 40 31 32 36 41 45 41 41 39
60 57 58 57 58 58 58 57 56 52 52 46 50 60 54 55 58 63 66 63 58 44 42 35 29 35 42 47 46 42 40 31
70 62 62 57 56 59 62 55 59 55 52 45 45 53 54 56 58 58 57 53 47 43 38 33 35 40 43 44 40 35 27 23
75 65 66 60 59 56 56 56 57 58 55 45 50 56 57 58 58 51 45 45 45 43 39 43 37 38 40 39 38 30 24 20
81 73 71 67 61 56 54 55 56 64 56 53 53 56 56 51 45 43 44 46 46 44 45 37 34 38 36 35 33 29 26 23
82 82 74 69 61 56 58 56 58 70 58 55 51 50 46 40 37 40 46 45 46 47 42 37 33 38 41 36 36 31 28 30
85 81 77 72 62 59 59 59 66 66 56 50 45 36 35 34 37 42 48 54 53 50 40 35 31 33 33 36 38 29 30 33
82 79 74 71 63 62 62 72 73 57 54 45 37 33 36 40 43 43 52 53 55 43 36 33 31 33 31 34 35 31 29 26
86 85 74 71 71 68 75 71 68 58 48 40 35 34 41 42 41 48 45 47 46 40 37 29 31 31 29 29 29 26 26 22
91 81 77 74 69 77 71 73 64 55 45 39 33 38 39 40 42 41 39 39 38 35 33 28 29 30 30 29 25 26 28 23
87 84 80 76 73 82 76 76 67 49 47 36 33 38 37 38 37 36 37 33 33 31 31 29 28 28 30 26 24 24 27 25

GFSFLT2_prec_cthk_342.txt.gz
RH
25 22 20 20 18 17 16 16 17 16 16 16 17 17 16 16 17 17 19 21 24 28 35 39 38 38 37 33 35 34 27 23
26 22 20 20 19 19 17 17 18 18 20 20 20 19 18 18 19 20 22 26 33 40 40 39 44 41 39 34 33 31 23 30
29 23 22 22 21 21 19 18 19 21 22 22 22 21 21 21 23 26 31 38 42 42 44 42 41 39 34 31 30 26 29 33
31 27 24 23 22 21 20 20 20 21 23 23 23 22 24 29 31 34 41 45 45 44 44 44 40 36 32 28 29 30 31 34
34 28 26 24 22 22 20 20 21 22 22 22 25 27 32 31 37 46 51 54 58 62 58 52 46 41 35 30 28 27 28 33
35 30 27 28 26 25 23 22 22 24 30 33 37 40 34 44 53 62 64 69 72 74 67 56 48 41 35 30 29 31 30 31
37 34 29 28 26 26 25 24 26 31 38 47 48 45 48 58 67 70 73 80 79 73 59 46 42 38 34 36 34 33 33 31
38 36 33 32 29 27 26 27 32 37 45 59 52 47 58 66 69 71 75 78 69 57 49 45 41 39 36 39 34 32 35 33
44 37 36 36 33 31 30 30 35 38 48 56 58 58 60 64 68 69 68 66 58 58 49 43 40 37 39 36 36 36 36 30
51 44 38 38 38 43 42 42 41 39 45 51 59 58 62 63 64 63 63 61 60 55 45 38 36 36 35 36 39 36 33 27
57 54 43 45 48 51 49 49 48 53 55 55 53 53 58 57 55 59 61 60 58 53 41 35 30 33 34 40 37 32 28 24
69 59 51 50 53 55 54 57 56 58 60 60 54 54 55 49 54 55 58 59 55 47 39 30 29 30 37 40 35 29 23 18
88 68 64 56 59 59 61 59 61 56 58 57 56 54 49 48 52 57 55 48 44 42 36 28 32 32 38 36 32 29 23 19
94 77 68 62 64 62 61 58 58 55 54 56 54 50 51 51 54 51 44 40 40 38 36 33 28 32 34 35 32 27 24 22
97 85 75 69 66 63 62 60 55 54 56 59 60 60 52 52 52 43 38 36 37 38 39 32 30 35 34 28 31 26 26 26
98 83 83 70 71 68 62 55 54 51 55 63 64 59 51 51 47 38 34 37 43 44 42 34 28 31 36 34 34 32 25 28
98 88 82 76 77 69 66 56 52 52 59 65 61 55 47 45 38 35 37 46 48 45 38 35 27 33 34 33 30 28 27 25
94 96 83 83 79 77 63 58 55 59 68 63 58 41 42 40 38 36 43 47 48 46 39 34 25 32 34 32 31 27 25 24
90 98 90 88 83 73 63 60 58 68 71 59 47 37 41 38 35 37 41 42 43 43 40 34 25 28 31 29 30 27 25 23
97 98 94 87 81 70 66 66 69 72 64 54 38 40 37 35 35 38 37 38 39 36 33 32 26 29 29 29 26 25 26 26

GFSFLT2_prec_cthk_345.txt.gz
RH
31 25 22 21 19 16 16 15 15 16 15 16 17 17 16 16 16 16 18 22 25 32 37 37 38 35 39 36 33 26 20 27
32 26 23 21 19 17 16 16 16 16 17 18 19 19 18 18 18 19 22 26 35 38 41 37 38 40 37 32 29 24 27 31
32 28 23 22 19 18 18 18 18 18 20 21 21 20 21 22 23 25 29 36 40 42 42 40 41 37 33 31 26 25 27 32
34 28 25 23 21 19 19 19 19 20 21 21 21 20 21 24 29 33 40 44 44 45 45 43 39 32 30 25 23 22 28 35
37 29 27 24 22 20 20 20 21 21 22 22 20 20 25 31 34 41 46 47 52 58 51 52 41 29 23 21 21 29 31 37
41 31 27 26 24 21 20 20 20 21 23 23 22 27 31 35 44 53 56 58 63 69 59 49 37 29 24 23 27 27 28 28
45 36 29 29 26 24 23 22 22 23 23 26 29 35 38 47 58 65 67 70 72 70 55 39 38 30 28 29 27 25 25 25
55 40 33 31 28 26 25 24 24 24 30 36 41 48 48 57 65 67 70 73 67 57 45 42 36 30 34 30 28 27 26 23
67 46 36 34 31 28 26 25 25 30 41 43 46 48 57 64 64 65 66 67 58 55 46 41 34 32 35 28 29 32 25 18
78 57 41 38 36 32 30 29 32 36 48 55 51 57 62 65 66 64 61 57 58 55 46 40 34 35 32 32 37 31 25 17
84 71 47 40 40 36 33 36 39 43 50 56 60 60 65 66 66 59 59 58 57 54 44 37 33 35 31 36 35 29 25 17
89 86 57 47 44 39 36 38 46 45 45 52 56 58 64 66 61 55 59 60 56 51 43 34 33 29 32 36 33 28 21 17
91 93 75 55 47 43 43 45 52 50 51 56 54 55 62 60 56 54 57 61 55 47 43 33 33 29 31 35 34 29 20 19
81 93 88 62 50 52 51 53 57 57 56 59 58 56 61 57 54 54 58 54 48 45 39 30 28 27 29 35 33 28 20 20
68 78 96 77 64 58 57 59 60 60 59 56 58 58 61 57 54 53 55 48 42 41 36 28 28 29 32 31 28 26 21 22
61 65 94 90 69 62 61 60 62 65 57 56 61 59 60 59 53 53 50 42 40 39 38 34 24 26 32 28 27 28 24 23
51 57 96 97 77 70 67 64 66 63 58 57 60 58 64 61 52 54 43 37 40 44 43 36 28 26 29 32 29 29 25 24
46 56 75 97 94 81 76 68 66 63 61 55 59 65 66 60 52 49 38 40 46 44 40 34 30 26 33 35 30 27 23 23
44 57 80 95 93 86 81 67 63 64 59 54 60 66 63 53 49 44 38 47 49 47 42 38 32 25 28 30 30 27 26 24
47 60 80 98 95 94 85 74 67 65 58 56 63 63 60 45 48 40 38 47 46 44 43 39 33 26 25 27 29 26 25 26

GFSFLT2_prec_cthk_351.txt.gz
RH
41 38 34 28 25 22 18 17 18 18 19 19 19 20 21 23 24 21 20 23 29 35 35 32 33 29 31 25 24 24 29 29
42 40 36 28 26 22 18 18 18 19 19 20 21 21 22 26 26 21 23 28 34 35 33 34 31 32 32 27 23 26 28 30
47 40 34 29 26 23 20 19 20 20 21 22 22 22 24 27 24 25 27 36 35 34 34 30 32 35 30 23 21 28 30 30
51 43 34 30 27 23 21 22 22 21 22 22 22 21 23 23 27 29 35 41 38 41 33 34 37 32 24 21 26 30 31 31
55 46 37 33 28 24 21 22 22 22 22 23 21 22 24 27 29 33 40 45 47 42 37 39 33 25 23 25 25 30 32 29
63 50 40 35 30 26 22 22 21 22 23 23 22 23 27 29 32 43 48 53 52 50 44 33 23 24 23 25 24 28 29 28
67 58 44 37 32 28 23 23 22 22 23 24 24 25 30 31 38 53 57 60 62 53 43 27 23 23 24 24 25 25 22 23
73 66 51 41 35 31 25 23 23 23 23 24 26 27 35 33 47 60 67 68 62 53 39 32 25 22 24 26 27 23 19 16
79 77 60 48 39 34 29 25 24 23 24 26 27 29 41 41 59 69 73 74 62 50 43 35 28 23 26 31 27 20 17 12
79 82 73 62 46 38 32 29 27 28 27 28 29 32 45 53 69 72 75 77 64 50 48 38 30 26 30 34 26 20 16 12
83 82 80 73 54 44 38 33 31 30 29 29 30 37 50 62 75 76 75 74 62 52 50 44 32 28 35 35 26 20 16 12
79 86 86 83 66 52 44 38 34 32 31 31 37 47 59 67 78 76 76 71 63 58 52 45 34 31 38 35 28 23 16 13
69 84 90 91 83 60 49 42 36 35 34 36 47 54 59 69 76 77 74 69 67 61 55 42 35 35 36 34 31 25 18 15
65 76 88 90 91 77 60 49 42 39 37 42 59 61 68 73 77 79 73 68 69 62 57 44 40 37 33 33 36 28 20 16
49 68 82 93 92 89 78 60 51 44 41 44 64 78 77 75 74 78 72 72 70 64 57 48 42 39 30 32 36 27 24 18
38 54 71 90 95 93 86 70 54 46 43 46 63 78 78 79 71 75 73 74 74 64 58 50 45 43 29 30 31 24 26 23
34 41 51 83 92 96 92 85 68 52 48 48 58 65 70 74 73 71 75 77 76 64 55 45 46 43 27 27 29 26 24 24
29 39 48 56 80 90 90 86 77 63 52 48 56 60 60 75 74 72 77 80 74 62 53 46 49 39 27 27 29 29 27 24
26 34 43 57 68 82 89 80 84 71 56 52 54 58 70 81 73 72 77 83 77 59 50 49 50 39 27 27 29 34 31 27
19 30 36 52 56 71 80 76 74 73 64 58 59 58 73 85 70 71 75 82 82 56 51 53 49 37 28 26 26 33 31 29

GFSFLT2_prec_cthk_354.txt.gz
RH
41 35 34 29 28 25 21 20 21 23 23 22 22 25 24 24 24 21 20 24 31 34 30 30 25 23 26 29 30 27 28 36
50 40 37 30 27 24 22 22 24 23 23 23 23 26 27 28 26 24 24 30 34 31 32 30 27 28 32 29 26 37 31 32
51 44 40 36 31 24 23 24 25 25 24 25 27 32 33 29 24 27 27 36 36 34 30 31 31 33 31 28 30 31 33 30
58 46 43 40 34 26 28 26 29 32 32 31 38 35 31 28 29 30 34 39 39 32 33 35 42 36 31 33 35 29 30 28
65 55 44 38 38 31 34 30 35 35 34 35 34 32 29 28 30 33 42 42 39 35 40 47 43 37 40 35 37 39 37 27
66 64 51 40 35 32 29 31 28 35 37 36 27 30 29 31 31 37 46 52 47 46 44 42 32 35 33 31 36 39 35 26
68 68 57 42 35 34 29 26 25 31 35 31 27 31 31 32 36 47 54 57 57 49 41 32 34 34 31 29 32 38 34 25
72 74 65 50 40 33 29 25 24 29 33 27 26 31 34 35 39 52 60 67 67 50 37 31 31 32 31 30 35 30 25 25
75 75 74 62 48 40 33 26 25 26 30 26 26 31 36 38 43 57 68 73 69 53 38 32 31 31 32 32 33 25 22 19
84 80 78 74 57 43 36 29 27 32 30 25 26 31 38 40 49 65 74 76 73 59 42 35 31 29 30 34 31 22 18 16
88 86 83 80 68 52 42 35 30 34 32 26 28 31 40 44 57 72 76 79 76 62 47 39 33 29 33 38 31 23 19 16
83 86 85 87 83 66 49 40 37 37 32 31 30 31 36 49 62 77 77 79 76 62 51 45 34 29 35 41 33 25 19 16
69 80 85 83 89 81 60 46 45 41 37 34 31 31 38 54 67 80 79 79 74 66 59 49 37 32 35 42 34 27 22 17
52 63 79 84 87 92 78 61 52 47 42 36 34 33 43 55 67 78 79 78 78 67 66 54 42 33 35 41 35 29 23 18
39 50 59 72 85 91 91 75 64 58 50 43 39 36 47 56 65 74 80 79 67 75 72 60 50 37 36 42 38 33 27 20
34 45 51 56 74 91 92 87 69 60 49 48 42 45 56 60 73 76 80 81 73 79 75 66 54 44 43 36 34 33 28 26
24 36 43 53 59 83 89 87 86 71 61 58 45 46 59 78 82 79 76 81 76 79 77 64 57 47 46 39 31 31 27 28
24 28 34 42 52 66 79 89 90 89 72 60 51 44 50 74 91 83 78 72 78 78 79 63 57 46 49 41 31 31 29 28
28 28 30 35 43 48 59 66 71 88 86 69 55 51 45 59 73 73 74 75 79 77 79 65 60 47 52 40 31 34 36 31
28 25 25 32 40 46 49 51 54 67 89 84 65 56 48 53 56 59 71 77 77 79 80 75 57 52 54 41 31 32 35 33